Location: Newark
(55.7681°N, 37.7103°E)
Time: 19:37:04
(UTC+00:00)

N. Korean satellite - Pass Details

Date: 25 October 2019
Orbit: 456 x 506 km, 97.2° (Epoch: 21 November)

Event Time Altitude Azimuth Distance (km) Brightness Sun altitude
Rises 14:52:41 0° 184° (S) 2,478 10.4 -7.2°
Reaches altitude 10° 14:54:48 10° 193° (SSW) 1,614 9.5 -7.4°
Maximum altitude 14:58:03 37° 263° (W) 746 8.3 -7.9°
Drops below altitude 10° 15:01:22 10° 332° (NNW) 1,649 9.5 -8.4°
Sets 15:03:33 0° 341° (NNW) 2,542 10.4 -8.7°
